Weather observations for the past three days for
Lima, Lima Allen County Airport
Imperial (Metric)
Date Time (edt) Wind (mph) Vis. (mi.) Weather Sky Cond. Temperature (ºF) Relative Humidity Wind Chill (°F) Heat Index (°F) Pressure Precipitation (in)
Air Dwpt 6 hour altimeter (in) sea level (mb) 1 hr 3 hr 6 hr
Max. Min.
22 03:53 SW 3 10.00 Fair CLR 75.9 66 72% 77 30.1 1018.2
22 02:53 SW 3 10.00 Fair CLR 75.9 66 72% 77 30.1 1018.2
22 01:53 Calm 10.00 Fair CLR 78.1 66 91.9 75.9 67% 80 30.1 1018.3
22 00:53 S 3 10.00 Fair CLR 78.1 66 67% 80 30.11 1018.4
21 23:53 Calm 10.00 Fair CLR 78.1 64.9 64% 80 30.11 1018.7
21 22:53 SW 3 10.00 Fair CLR 84 64.9 53% 86 30.12 1019.0
21 21:53 W 3 10.00 Fair CLR 86 64.9 49% 88 30.12 1018.8
21 20:53 SW 6 10.00 Fair CLR 88 64.9 46% 90 30.11 1018.8
21 19:53 SW 9 10.00 Fair CLR 91.9 64.9 96.1 91.9 41% 94 30.11 1018.5
21 18:53 SW 8 10.00 Fair CLR 93.9 64 37% 96 30.11 1018.5
21 17:53 SW 12 10.00 A Few Clouds FEW070 93.9 64.9 38% 96 30.12 1018.9
21 16:53 Calm 10.00 Fair CLR 93 64.9 40% 95 30.14 1019.5
21 15:53 W 7 G 21 10.00 Fair CLR 95 64 36% 97 30.16 1020.2
21 14:53 Calm 10.00 A Few Clouds FEW065 95 66.9 40% 99 30.18 1020.9
21 13:53 SW 15 G 21 10.00 A Few Clouds FEW065 93 64 93.9 75.9 38% 95 30.2 1021.9
21 12:53 W 9 10.00 Fair CLR 93 64 38% 95 30.22 1022.4
21 11:53 W 9 10.00 A Few Clouds FEW048 91.9 66 43% 95 30.23 1022.8
21 10:53 NW 9 10.00 Fair CLR 88 70 55% 93 30.24 1023.0
21 09:53 W 6 7.00 Fair CLR 84.9 71.1 63% 90 30.25 1023.3
21 08:53 W 6 6.00 Fair with Haze CLR 81 70 69% 84 30.25 1023.3
21 07:53 SW 6 6.00 Fair with Haze CLR 75.9 68 75.9 71.1 77% 77 30.25 1023.3
21 06:53 Calm 6.00 Fair with Haze CLR 73.9 68 82% 30.24 1023.0
21 05:53 Calm 8.00 Mostly Cloudy BKN070 73.9 68 82% 30.23 1022.8
21 04:53 S 3 7.00 Fair CLR 72 69.1 91% 30.23 1022.6
21 03:53 Calm 8.00 Fair CLR 71.1 68 90% 30.23 1022.6
21 02:53 Calm 9.00 Fair CLR 73.9 69.1 85% 30.24 1022.9
21 01:53 NE 7 10.00 Fair CLR 75.9 68 91 75 77% 77 30.24 1023.2
21 00:53 S 5 10.00 Fair CLR 75.9 66.9 74% 77 30.24 1023.1
20 23:53 NW 5 10.00 Fair CLR 79 66 65% 81 30.24 1023.2
20 22:53 W 6 10.00 Fair CLR 82 66.9 60% 85 30.25 1023.2
20 21:53 SW 6 10.00 Fair CLR 84 68 59% 87 30.24 1022.9
20 20:53 SW 6 10.00 A Few Clouds FEW060 88 68 52% 92 30.22 1022.5
20 19:53 SW 8 10.00 Fair CLR 91 68 95 91 47% 95 30.22 1022.2
20 18:53 SW 13 10.00 Fair CLR 93.9 66.9 41% 98 30.22 1022.2
20 17:53 SW 12 10.00 Fair CLR 93.9 68 43% 98 30.22 1022.5
20 16:53 SW 8 10.00 A Few Clouds FEW060 93.9 66.9 41% 98 30.23 1022.9
20 15:53 NW 7 10.00 Fair CLR 93.9 69.1 44% 99 30.26 1023.6
20 14:53 Vrbl 5 10.00 Fair CLR 93 69.1 46% 98 30.27 1024.1
20 13:53 W 7 10.00 Fair CLR 91.9 71.1 91.9 78.1 51% 99 30.29 1024.8
20 12:53 Calm 10.00 Fair CLR 90 72 56% 97 30.3 1025.2
20 11:53 W 12 G 17 10.00 Fair CLR 88 72 59% 95 30.31 1025.4
20 10:53 NW 9 9.00 Fair CLR 84.9 72 65% 91 30.31 1025.4
20 09:53 W 12 8.00 Fair CLR 84 72 67% 90 30.3 1025.2
20 08:53 W 9 8.00 Fair CLR 80.1 72 76% 84 30.31 1025.4
20 07:53 SW 8 7.00 Fair CLR 78.1 72 78.1 75 82% 80 30.3 1025.2
20 06:53 S 8 6.00 Fog/Mist CLR 75 72 90% 74 30.29 1024.9
20 05:53 S 8 8.00 Fair CLR 75 71.1 88% 75 30.28 1024.6
20 04:53 S 8 9.00 A Few Clouds FEW060 75.9 72 88% 76 30.27 1024.3
20 03:53 S 8 9.00 Mostly Cloudy BKN060 75.9 71.1 85% 76 30.27 1024.2
20 02:53 S 8 10.00 Mostly Cloudy BKN055 77 71.1 82% 79 30.27 1024.1
20 01:53 S 7 10.00 Fair CLR 77 71.1 82.9 77 82% 79 30.27 1024.1
20 00:53 S 7 10.00 Fair CLR 79 72 79% 82 30.27 1024.0
19 23:53 SE 7 10.00 Fair CLR 78.1 73 85% 81 30.26 1023.9
19 22:53 S 7 7.00 A Few Clouds FEW060 79 75 88% 83 30.26 1023.9
19 21:53 Calm 8.00 A Few Clouds FEW055 80.1 75.9 87% 85 30.26 1023.7
19 20:53 Calm 8.00 Fair CLR 82 75.9 82% 89 30.25 1023.3
19 19:53 Calm 8.00 Fair CLR 82 75 91.9 80.1 79% 89 30.22 1022.5
19 18:53 W 12 7.00 Mostly Cloudy FEW070 SCT090 BKN110 81 75 82% 87 30.24 1023.0
19 17:53 NW 6 6.00 Fog/Mist CLR 82.9 79 88% 94 30.23 1022.7
19 16:53 SW 5 7.00 Thunderstorm Light Rain FEW032 BKN050 BKN085 82.9 75.9 79% 91 30.24 1023.0
19 15:53 N 6 10.00 Mostly Cloudy SCT050 SCT070 BKN090 89.1 73 59% 97 30.25 1023.3
19 14:53 Vrbl 3 9.00 Fair CLR 91 71.1 52% 98 30.24 1023.1
19 13:53 SW 5 10.00 Mostly Cloudy SCT055 BKN075 BKN090 90 70 91 79 52% 95 30.25 1023.4
19 12:53 Vrbl 5 10.00 Fair CLR 90 71.1 54% 96 30.27 1024.0
19 11:53 Vrbl 3 10.00 Fair CLR 88 72 59% 95 30.27 1024.2
19 10:53 Vrbl 3 10.00 Fair CLR 86 73 65% 93 30.27 1024.1
19 09:53 S 7 10.00 Fair CLR 84 73 70% 90 30.27 1024.2
19 08:53 S 8 10.00 Fair CLR 81 72 74% 85 30.26 1023.8
19 07:53 S 6 8.00 Fair CLR 79 72 79 73.9 79% 82 30.25 1023.4
19 06:53 SE 9 8.00 Fair CLR 75.9 72 88% 76 30.23 1022.7
19 05:53 SE 7 10.00 Fair CLR 75 71.1 88% 75 30.21 1022.0
Date Time (edt) Wind (mph) Vis. (mi.) Weather Sky Cond. Air Dwpt Max. Min. Relative Humidity Wind Chill (°F) Heat Index (°F) altimeter (in) sea level (mb) 1 hr 3 hr 6 hr
6 hour
Temperature (ºF) Pressure Precipitation (in)